This demonstration page uses our WeatherBlox Daily Observations layout. Learn more.

Left ArrowRight Arrow

38.80484, -77.04692

Hourly Observations for September 21, 2021

Temp ( °F °C ) Dew Point ( °F °C ) Humidity (%) Winds ( mph kmh ) Pressure ( in mb ) Visibility ( mi km ) Precip ( " mm )
12:52 am 00:52 Cloudy 68 20 59 15 73 73 NE 5 7 30.30 1026 10 16 0.00 0.00
1:52 am 01:52 Mostly Cloudy 67 19.4 59 15 76 76 ENE 7 11 30.29 1026 10 16 0.00 0.00
2:52 am 02:52 Cloudy 67 19.4 60 15.6 79 79 NE 7 11 30.28 1025 10 16 0.00 0.00
3:52 am 03:52 Mostly Clear 66 18.9 60 15.6 81 81 NNE 7 11 30.27 1025 10 16 0.00 0.00
4:52 am 04:52 Mostly Clear 65 18.3 60 15.6 84 84 NNE 6 9 30.26 1025 10 16 0.00 0.00
5:52 am 05:52 Partly Cloudy 65 18.3 60 15.6 84 84 NNE 7 11 30.27 1025 10 16 0.00 0.00
6:52 am 06:52 Mostly Cloudy 65 18.3 60 15.6 84 84 N 6 9 30.28 1025 10 16 0.00 0.00
7:52 am 07:52 Mostly Cloudy 67 19.4 61 16.1 81 81 NNE 7 11 30.29 1026 10 16 0.00 0.00
8:52 am 08:52 Cloudy 70 21.1 63 17.2 79 79 NE 6 9 30.29 1026 10 16 0.00 0.00
9:52 am 09:52 Cloudy 74 23.3 65 18.3 74 74 E 8 13 30.29 1026 10 16 0.00 0.00
10:52 am 10:52 Mostly Cloudy 77 25 66 18.9 69 69 ESE 9 15 30.28 1025 10 16 0.00 0.00
11:44 am 11:44 Mostly Cloudy 78 25.6 66 18.9 67 67 VRB 7 11 30.27 1025 10 16 0.00 0.00
11:52 am 11:52 Mostly Cloudy 78 25.6 66 18.9 67 67 SSE 7 11 30.27 1025 10 16 0.00 0.00
12:11 pm 12:11 Mostly Cloudy 80 26.7 67 19.4 64 64 SSE 7 11 30.27 1025 10 16 0.00 0.00
12:52 pm 12:52 Mostly Cloudy with Light Rain 79 26.1 66 18.9 65 65 SSE 13 20 30.26 1025 9 14 0.00 0.00
1:52 pm 13:52 Cloudy 80 26.7 65 18.3 60 60 SE 9 15 30.24 1024 10 16 0.00 0.00
2:52 pm 14:52 Cloudy 81 27.2 64 17.8 57 57 SSE 9 15 30.22 1023 10 16 0.00 0.00
3:52 pm 15:52 Cloudy 80 26.7 65 18.3 60 60 SE 13 20 30.21 1023 10 16 0.00 0.00
4:52 pm 16:52 Cloudy 80 26.7 63 17.2 56 56 SE 13 20 30.20 1023 10 16 0.00 0.00
5:52 pm 17:52 Cloudy 79 26.1 65 18.3 62 62 ESE 12 19 30.19 1023 10 16 0.00 0.00
6:52 pm 18:52 Cloudy 78 25.6 65 18.3 64 64 SE 7 11 30.19 1022 10 16 0.00 0.00
7:52 pm 19:52 Mostly Cloudy 77 25 66 18.9 69 69 ESE 5 7 30.19 1022 10 16 0.00 0.00
8:52 pm 20:52 Mostly Cloudy 76 24.4 65 18.3 69 69 ESE 5 7 30.19 1022 10 16 0.00 0.00
9:52 pm 21:52 Partly Cloudy 75 23.9 64 17.8 69 69 ESE 6 9 30.19 1022 10 16 0.00 0.00
10:52 pm 22:52 Cloudy 74 23.3 66 18.9 76 76 ESE 5 7 30.18 1022 10 16 0.00 0.00
11:52 pm 23:52 Mostly Cloudy 73 22.8 67 19.4 81 81 ESE 6 9 30.18 1022 10 16 0.00 0.00

Powered by AerisWeather